This is the latest recevied weather packets stored in our database for station/object EA3FHP. If no packets are shown the sender has not sent any weather packets the latest 10 day(s).
| Time | Temp. | Humidity | Pressure | Rain* | Wind** | Luminosity | Snow |
|---|---|---|---|---|---|---|---|
| 1787496603 | 32.78° C | 47% | 1017.3 hPa | 0 mm | - | - | - |
| 1787496003 | 32.22° C | 48% | 1017.4 hPa | 0 mm | - | - | - |
| 1787495403 | 32.22° C | 48% | 1017.4 hPa | 0 mm | - | - | - |
| 1787494803 | 32.22° C | 49% | 1017.4 hPa | 0 mm | - | - | - |
| 1787494204 | 32.22° C | 49% | 1017.6 hPa | 0 mm | - | - | - |
| 1787493605 | 32.22° C | 48% | 1017.7 hPa | 0 mm | - | - | - |
| 1787493003 | 32.78° C | 46% | 1017.9 hPa | 0 mm | - | - | - |
| 1787492403 | 32.22° C | 48% | 1018 hPa | 0 mm | - | - | - |
| 1787491803 | 32.22° C | 45% | 1017.9 hPa | 0 mm | - | - | - |
| 1787491203 | 32.22° C | 47% | 1018.1 hPa | 0 mm | - | - | - |
| 1787490603 | 32.22° C | 47% | 1018.1 hPa | 0 mm | - | - | - |
| 1787490005 | 31.67° C | 46% | 1018.4 hPa | 0 mm | - | - | - |
| 1787489404 | 32.78° C | 48% | 1018.5 hPa | 0 mm | - | - | - |
| 1787488803 | 31.67° C | 48% | 1018.5 hPa | 0 mm | - | - | - |
| 1787488204 | 31.67° C | 48% | 1018.5 hPa | 0 mm | - | - | - |
| 1787487603 | 30.56° C | 50% | 1018.5 hPa | 0 mm | - | - | - |
| 1787487003 | 30.56° C | 49% | 1018.6 hPa | 0 mm | - | - | - |
| 1787486403 | 29.44° C | 51% | 1018.5 hPa | 0 mm | - | - | - |
| 1787485803 | 30.56° C | 47% | 1018.8 hPa | 0 mm | - | - | - |
| 1787485203 | 30° C | 48% | 1019 hPa | 0 mm | - | - | - |
| 1787484620 | 30.56° C | 50% | 1019.1 hPa | 0 mm | - | - | - |
| 1787484003 | 30° C | 49% | 1019 hPa | 0 mm | - | - | - |
| 1787483403 | 29.44° C | 51% | 1019.2 hPa | 0 mm | - | - | - |
| 1787482803 | 29.44° C | 50% | 1019.4 hPa | 0 mm | - | - | - |
| 1787482203 | 28.89° C | 52% | 1019.5 hPa | 0 mm | - | - | - |
* Rain latest hour (hover to see other rain measurements)
** Current wind speed in m/s (hover to see current wind gust speed)